Back to catalog

ASTRA 1L

AliveCommunicationsGEO
NORAD 31306·PAYLOAD·🇱🇺 Luxembourg

Launched May 4, 2007 from Guiana Space Centre

Loading…

TLE

FreshSource: CelesTrak SupGP

Epoch: Sep 13, 2026, 23:44 UTC

1 31306C 07016A   26256.98958333 -.00000094  00000+0  00000+0 0  2564
2 31306   1.5449  80.6807 0004878  90.3235 153.7344  1.00271989    11

Track ASTRA 1L in real time with AllMySat

Download on the App Store